,,,PA_Meas_PMT16A,,PR_Meas_QMR101_102,,RH_Meas_QMH101,,SR_Meas_QMS101,,TA_Meas_QMH101,,GenWind,,GenWind,
date,time,status,PA,status,PR,status,RH,status,SR,status,TA,status,DirAvg,status,SpdAvg,
2010-12-30, 00:00:04,VALID,1008.95,VALID,0,VALID,103.664,VALID,0,VALID,23.8304,VALID,61,VALID,0.301562,
2010-12-30, 00:01:04,VALID,1008.93,VALID,0,VALID,103.596,VALID,0,VALID,23.8304,VALID,61,VALID,0.278516,
2010-12-30, 00:02:04,VALID,1008.9,VALID,0,VALID,103.596,VALID,0,VALID,23.8712,VALID,61,VALID,0,
2010-12-30, 00:03:04,VALID,1008.87,VALID,0,VALID,103.573,VALID,0,VALID,23.8304,VALID,72,VALID,0.449219,
2010-12-30, 00:04:04,VALID,1008.9,VALID,0,VALID,103.558,VALID,0,VALID,23.8517,VALID,72,VALID,0.347656,
2010-12-30, 00:05:04,VALID,1008.91,VALID,0,VALID,103.542,VALID,0,VALID,23.8304,VALID,72,VALID,0,
2010-12-30, 00:06:04,VALID,1008.89,VALID,0,VALID,103.535,VALID,0,VALID,23.8517,VALID,72,VALID,0,
2010-12-30, 00:07:04,VALID,1008.88,VALID,0,VALID,103.542,VALID,0,VALID,23.8304,VALID,72,VALID,0.0363281,
2010-12-30, 00:08:04,VALID,1008.87,VALID,0,VALID,103.527,VALID,0,VALID,23.8499,VALID,72,VALID,0.118359,
2010-12-30, 00:09:04,VALID,1008.87,VALID,0,VALID,103.527,VALID,0,VALID,23.8499,VALID,72,VALID,0.373047,
2010-12-30, 00:10:04,VALID,1008.85,VALID,0,VALID,103.527,VALID,0,VALID,23.8712,VALID,72,VALID,0.117188,
2010-12-30, 00:11:04,VALID,1008.85,VALID,0,VALID,103.535,VALID,0,VALID,23.8694,VALID,72,VALID,0.209375,
2010-12-30, 00:12:04,VALID,1008.83,VALID,0,VALID,103.588,VALID,0,VALID,23.8889,VALID,72,VALID,0.477734,
2010-12-30, 00:13:04,VALID,1008.83,VALID,0,VALID,103.581,VALID,0,VALID,23.8889,VALID,72,VALID,0.439844,
2010-12-30, 00:14:04,VALID,1008.8,VALID,0,VALID,103.642,VALID,0,VALID,23.9278,VALID,72,VALID,0.177344,
2010-12-30, 00:15:04,VALID,1008.8,VALID,0,VALID,103.664,VALID,0,VALID,23.9084,VALID,72,VALID,0.308203,
2010-12-30, 00:16:04,VALID,1008.8,VALID,0,VALID,103.619,VALID,0,VALID,23.9084,VALID,72,VALID,0.1375,
2010-12-30, 00:17:04,VALID,1008.79,VALID,0,VALID,103.634,VALID,0,VALID,23.9084,VALID,72,VALID,0,
2010-12-30, 00:18:04,VALID,1008.78,VALID,0,VALID,103.657,VALID,0,VALID,23.9084,VALID,72,VALID,0,
2010-12-30, 00:19:04,VALID,1008.76,VALID,0,VALID,103.664,VALID,0,VALID,23.9084,VALID,72,VALID,0.259375,
2010-12-30, 00:20:04,VALID,1008.78,VALID,0,VALID,103.649,VALID,0,VALID,23.9084,VALID,72,VALID,0.389844,
2010-12-30, 00:21:04,VALID,1008.78,VALID,0,VALID,103.596,VALID,0,VALID,23.8694,VALID,72,VALID,0.502734,
2010-12-30, 00:22:04,VALID,1008.76,VALID,0,VALID,103.55,VALID,0,VALID,23.8694,VALID,72,VALID,0.225781,
2010-12-30, 00:23:04,VALID,1008.75,VALID,0,VALID,103.527,VALID,0,VALID,23.8712,VALID,65,VALID,0.437109,
2010-12-30, 00:24:04,VALID,1008.75,VALID,0,VALID,103.512,VALID,0,VALID,23.8712,VALID,68,VALID,0.927344,
2010-12-30, 00:25:04,VALID,1008.75,VALID,0,VALID,103.504,VALID,0,VALID,23.8499,VALID,84,VALID,0.632813,
2010-12-30, 00:26:04,VALID,1008.74,VALID,0,VALID,103.52,VALID,0,VALID,23.8712,VALID,84,VALID,1.04531,
2010-12-30, 00:27:04,VALID,1008.75,VALID,0,VALID,103.497,VALID,0,VALID,23.8304,VALID,84,VALID,0.746094,
2010-12-30, 00:28:04,VALID,1008.71,VALID,0,VALID,103.542,VALID,0,VALID,23.8304,VALID,83,VALID,0.548828,
2010-12-30, 00:29:04,VALID,1008.71,VALID,0,VALID,103.55,VALID,0,VALID,23.8304,VALID,67,VALID,0.442187,
2010-12-30, 00:30:04,VALID,1008.66,VALID,0,VALID,103.565,VALID,0,VALID,23.8109,VALID,68,VALID,0.808594,
2010-12-30, 00:31:04,VALID,1008.67,VALID,0,VALID,103.573,VALID,0,VALID,23.7914,VALID,72,VALID,0.745703,
2010-12-30, 00:32:04,VALID,1008.68,VALID,0,VALID,103.588,VALID,0,VALID,23.7914,VALID,94,VALID,1.14063,
2010-12-30, 00:33:04,VALID,1008.68,VALID,0,VALID,103.596,VALID,0,VALID,23.7914,VALID,95,VALID,0.644141,
2010-12-30, 00:34:04,VALID,1008.68,VALID,0,VALID,103.626,VALID,0,VALID,23.7914,VALID,95,VALID,0.252344,
2010-12-30, 00:35:04,VALID,1008.67,VALID,0,VALID,103.634,VALID,0,VALID,23.772,VALID,95,VALID,1.10469,
2010-12-30, 00:36:04,VALID,1008.67,VALID,0,VALID,103.565,VALID,0,VALID,23.772,VALID,95,VALID,0.861719,
2010-12-30, 00:37:04,VALID,1008.65,VALID,0,VALID,103.573,VALID,0,VALID,23.7914,VALID,95,VALID,0.683984,
2010-12-30, 00:38:04,VALID,1008.63,VALID,0,VALID,103.596,VALID,0,VALID,23.8109,VALID,87,VALID,0.614453,
2010-12-30, 00:39:04,VALID,1008.62,VALID,0,VALID,103.619,VALID,0,VALID,23.8109,VALID,87,VALID,0.674219,
2010-12-30, 00:40:04,VALID,1008.63,VALID,0,VALID,103.611,VALID,0,VALID,23.8499,VALID,87,VALID,0.855469,
2010-12-30, 00:41:04,VALID,1008.63,VALID,0,VALID,103.573,VALID,0,VALID,23.8481,VALID,71,VALID,0.877344,
2010-12-30, 00:42:04,VALID,1008.62,VALID,0,VALID,103.481,VALID,0,VALID,23.8694,VALID,83,VALID,0.869922,
2010-12-30, 00:43:04,VALID,1008.63,VALID,0,VALID,103.298,VALID,0.105969,VALID,23.8481,VALID,84,VALID,1.43164,
2010-12-30, 00:44:04,VALID,1008.63,VALID,0,VALID,103.077,VALID,0,VALID,23.8889,VALID,84,VALID,1.06133,
2010-12-30, 00:45:04,VALID,1008.63,VALID,0,VALID,102.978,VALID,0.105969,VALID,23.8676,VALID,84,VALID,0.400391,
2010-12-30, 00:46:04,VALID,1008.6,VALID,0,VALID,103.001,VALID,0,VALID,23.9084,VALID,84,VALID,0.858594,
2010-12-30, 00:47:04,VALID,1008.62,VALID,0,VALID,103.062,VALID,0.105969,VALID,23.8871,VALID,84,VALID,0.484375,
2010-12-30, 00:48:04,VALID,1008.61,VALID,0,VALID,103.062,VALID,0.105969,VALID,23.8871,VALID,99,VALID,0.53125,
2010-12-30, 00:49:04,VALID,1008.61,VALID,0,VALID,103.07,VALID,0.105969,VALID,23.8871,VALID,95,VALID,0.544141,
2010-12-30, 00:50:04,VALID,1008.6,VALID,0,VALID,103.123,VALID,0,VALID,23.9278,VALID,95,VALID,0.446484,
2010-12-30, 00:51:04,VALID,1008.61,VALID,0,VALID,103.047,VALID,0,VALID,23.9278,VALID,95,VALID,0.454297,
2010-12-30, 00:52:04,VALID,1008.6,VALID,0,VALID,102.94,VALID,0.105969,VALID,23.9065,VALID,95,VALID,0.130859,
2010-12-30, 00:53:04,VALID,1008.59,VALID,0,VALID,102.955,VALID,0.105969,VALID,23.926,VALID,95,VALID,0.5875,
2010-12-30, 00:54:04,VALID,1008.59,VALID,0,VALID,102.864,VALID,0.105969,VALID,23.9065,VALID,80,VALID,0.714063,
2010-12-30, 00:55:04,VALID,1008.56,VALID,0,VALID,102.788,VALID,0,VALID,23.9084,VALID,70,VALID,0.937891,
2010-12-30, 00:56:04,VALID,1008.55,VALID,0,VALID,102.62,VALID,0,VALID,23.8889,VALID,69,VALID,0.900781,
2010-12-30, 00:57:04,VALID,1008.52,VALID,0,VALID,102.566,VALID,0,VALID,23.8889,VALID,66,VALID,0.817187,
2010-12-30, 00:58:04,VALID,1008.46,VALID,0,VALID,102.437,VALID,0,VALID,23.8694,VALID,65,VALID,0.924609,
2010-12-30, 00:59:04,VALID,1008.45,VALID,0,VALID,102.551,VALID,0,VALID,23.8499,VALID,83,VALID,0.692969,
2010-12-30, 01:00:04,VALID,1008.41,VALID,0,VALID,102.627,VALID,0,VALID,23.8499,VALID,71,VALID,0.715625,
2010-12-30, 01:01:04,VALID,1008.39,VALID,0,VALID,102.704,VALID,0,VALID,23.8304,VALID,70,VALID,0.616797,
2010-12-30, 01:02:04,VALID,1008.37,VALID,0,VALID,102.78,VALID,0,VALID,23.8322,VALID,80,VALID,0.777344,
2010-12-30, 01:03:04,VALID,1008.36,VALID,0,VALID,102.818,VALID,0,VALID,23.8127,VALID,69,VALID,0.618359,
2010-12-30, 01:04:04,VALID,1008.35,VALID,0,VALID,102.81,VALID,0,VALID,23.7738,VALID,86,VALID,0.891016,
2010-12-30, 01:05:04,VALID,1008.33,VALID,0,VALID,102.871,VALID,0,VALID,23.7932,VALID,95,VALID,0.832422,
2010-12-30, 01:06:04,VALID,1008.33,VALID,0,VALID,102.917,VALID,0,VALID,23.7738,VALID,74,VALID,0.374219,
2010-12-30, 01:07:04,VALID,1008.32,VALID,0,VALID,102.955,VALID,0,VALID,23.7525,VALID,93,VALID,0.994922,
2010-12-30, 01:08:04,VALID,1008.3,VALID,0,VALID,102.917,VALID,0,VALID,23.733,VALID,96,VALID,0.778125,
2010-12-30, 01:09:04,VALID,1008.29,VALID,0,VALID,102.925,VALID,0,VALID,23.7543,VALID,95,VALID,0.715234,
2010-12-30, 01:10:04,VALID,1008.27,VALID,0,VALID,102.986,VALID,0,VALID,23.7525,VALID,95,VALID,0.712109,
2010-12-30, 01:11:04,VALID,1008.27,VALID,0,VALID,102.993,VALID,0.105969,VALID,23.7507,VALID,94,VALID,0.639453,
2010-12-30, 01:12:04,VALID,1008.24,VALID,0,VALID,103.009,VALID,0.105969,VALID,23.7914,VALID,83,VALID,0.591406,
2010-12-30, 01:13:04,VALID,1008.21,VALID,0,VALID,103.062,VALID,0,VALID,23.7701,VALID,101,VALID,0.771094,
2010-12-30, 01:14:04,VALID,1008.22,VALID,0,VALID,102.986,VALID,0.105969,VALID,23.7914,VALID,117,VALID,0.777734,
2010-12-30, 01:15:04,VALID,1008.2,VALID,0,VALID,102.917,VALID,0,VALID,23.8109,VALID,117,VALID,0.588281,
2010-12-30, 01:16:04,VALID,1008.19,VALID,0,VALID,102.788,VALID,0.105969,VALID,23.7896,VALID,121,VALID,0.989453,
2010-12-30, 01:17:04,VALID,1008.2,VALID,0,VALID,102.658,VALID,0,VALID,23.7896,VALID,119,VALID,0.852344,
2010-12-30, 01:18:04,VALID,1008.16,VALID,0,VALID,102.65,VALID,0,VALID,23.7914,VALID,139,VALID,0.773438,
2010-12-30, 01:19:04,VALID,1008.15,VALID,0,VALID,102.704,VALID,0,VALID,23.8109,VALID,120,VALID,0.930469,
2010-12-30, 01:20:04,VALID,1008.15,VALID,0,VALID,102.719,VALID,0.105969,VALID,23.7896,VALID,134,VALID,0.889453,
2010-12-30, 01:21:04,VALID,1008.17,VALID,0,VALID,102.704,VALID,0,VALID,23.7914,VALID,147,VALID,1.1418,
2010-12-30, 01:22:04,VALID,1008.16,VALID,0,VALID,102.772,VALID,0,VALID,23.7701,VALID,136,VALID,1.10938,
2010-12-30, 01:23:04,VALID,1008.17,VALID,0,VALID,102.856,VALID,0,VALID,23.7701,VALID,135,VALID,0.485547,
2010-12-30, 01:24:04,VALID,1008.16,VALID,0,VALID,102.879,VALID,0,VALID,23.7507,VALID,160,VALID,1.20625,
2010-12-30, 01:25:04,VALID,1008.16,VALID,0,VALID,102.864,VALID,0,VALID,23.772,VALID,160,VALID,0.926562,
2010-12-30, 01:26:04,VALID,1008.14,VALID,0,VALID,102.948,VALID,0,VALID,23.772,VALID,157,VALID,0.764844,
2010-12-30, 01:27:04,VALID,1008.14,VALID,0,VALID,102.978,VALID,0,VALID,23.7312,VALID,170,VALID,0.811719,
2010-12-30, 01:28:04,VALID,1008.14,VALID,0,VALID,103.024,VALID,0,VALID,23.7507,VALID,185,VALID,0.657812,
2010-12-30, 01:29:04,VALID,1008.14,VALID,0,VALID,103.07,VALID,0,VALID,23.772,VALID,193,VALID,0.658203,
2010-12-30, 01:30:04,VALID,1008.14,VALID,0,VALID,103.176,VALID,0,VALID,23.7914,VALID,193,VALID,0.611719,
2010-12-30, 01:31:04,VALID,1008.15,VALID,0,VALID,103.207,VALID,0,VALID,23.7507,VALID,199,VALID,0.742578,
2010-12-30, 01:32:04,VALID,1008.16,VALID,0,VALID,103.276,VALID,0,VALID,23.7914,VALID,215,VALID,0.835156,
2010-12-30, 01:33:04,VALID,1008.18,VALID,0,VALID,103.298,VALID,0,VALID,23.8109,VALID,229,VALID,1.19727,
2010-12-30, 01:34:04,VALID,1008.17,VALID,0,VALID,103.283,VALID,0,VALID,23.8109,VALID,242,VALID,1.04336,
2010-12-30, 01:35:04,VALID,1008.14,VALID,0.5,VALID,103.26,VALID,0.105969,VALID,23.8304,VALID,225,VALID,0.929688,
2010-12-30, 01:36:04,VALID,1008.11,VALID,0,VALID,103.298,VALID,0,VALID,23.8286,VALID,237,VALID,0.725781,
2010-12-30, 01:37:04,VALID,1008.08,VALID,0.5,VALID,103.344,VALID,0.105969,VALID,23.8304,VALID,236,VALID,0.294141,
2010-12-30, 01:38:04,VALID,1008.05,VALID,0.5,VALID,103.413,VALID,0,VALID,23.7914,VALID,236,VALID,0.250781,
2010-12-30, 01:39:04,VALID,1008.03,VALID,0,VALID,103.497,VALID,0,VALID,23.7507,VALID,138,VALID,0.639453,
2010-12-30, 01:40:04,VALID,1008.05,VALID,0.5,VALID,103.581,VALID,0,VALID,23.733,VALID,93,VALID,0.330469,
2010-12-30, 01:41:04,VALID,1008.05,VALID,0,VALID,103.664,VALID,0,VALID,23.7348,VALID,93,VALID,0.363281,
2010-12-30, 01:42:04,VALID,1008.06,VALID,0,VALID,103.726,VALID,0,VALID,23.7135,VALID,122,VALID,0.685547,
2010-12-30, 01:43:04,VALID,1008.07,VALID,0,VALID,103.794,VALID,0,VALID,23.7135,VALID,126,VALID,0.735156,
2010-12-30, 01:44:04,VALID,1008.07,VALID,0,VALID,103.832,VALID,0,VALID,23.7135,VALID,126,VALID,0.241797,
2010-12-30, 01:45:04,VALID,1008.07,VALID,0,VALID,103.87,VALID,0,VALID,23.7348,VALID,126,VALID,0.353125,
2010-12-30, 01:46:04,VALID,1008.03,VALID,0,VALID,103.916,VALID,0,VALID,23.733,VALID,126,VALID,0.059375,
2010-12-30, 01:47:04,VALID,1008.05,VALID,0,VALID,103.939,VALID,0,VALID,23.733,VALID,126,VALID,0.159375,
2010-12-30, 01:48:04,VALID,1008.04,VALID,0,VALID,103.985,VALID,0,VALID,23.7135,VALID,126,VALID,0.235156,
2010-12-30, 01:49:04,VALID,1008.02,VALID,0,VALID,103.977,VALID,0,VALID,23.7348,VALID,126,VALID,0,
2010-12-30, 01:50:04,VALID,1008.01,VALID,0,VALID,104,VALID,0,VALID,23.7135,VALID,126,VALID,0.0351563,
2010-12-30, 01:51:04,VALID,1008.02,VALID,0,VALID,104,VALID,0,VALID,23.7135,VALID,126,VALID,0,
2010-12-30, 01:52:04,VALID,1008.06,VALID,0,VALID,104,VALID,0,VALID,23.7153,VALID,126,VALID,0,
2010-12-30, 01:53:04,VALID,1008.06,VALID,0,VALID,104,VALID,0,VALID,23.6745,VALID,126,VALID,0.00429688,
2010-12-30, 01:54:04,VALID,1008.05,VALID,0,VALID,104,VALID,0,VALID,23.694,VALID,167,VALID,0.571094,
2010-12-30, 01:55:04,VALID,1008.03,VALID,0,VALID,104,VALID,0,VALID,23.694,VALID,167,VALID,0.659766,
2010-12-30, 01:56:04,VALID,1007.98,VALID,0,VALID,104,VALID,0,VALID,23.7135,VALID,167,VALID,0.305469,
2010-12-30, 01:57:04,VALID,1008.01,VALID,0,VALID,104,VALID,0,VALID,23.7135,VALID,167,VALID,0.282422,
2010-12-30, 01:58:04,VALID,1008.02,VALID,0,VALID,104,VALID,0,VALID,23.7135,VALID,167,VALID,0,
2010-12-30, 01:59:04,VALID,1008.05,VALID,0,VALID,104,VALID,0,VALID,23.733,VALID,167,VALID,0.448047,
2010-12-30, 02:00:04,VALID,1008.11,VALID,0,VALID,104,VALID,0,VALID,23.733,VALID,203,VALID,0.999219,
2010-12-30, 02:01:04,VALID,1008.12,VALID,0,VALID,104,VALID,0,VALID,23.733,VALID,207,VALID,1.01836,
2010-12-30, 02:02:04,VALID,1008.14,VALID,0,VALID,104,VALID,0,VALID,23.7525,VALID,221,VALID,0.757422,
2010-12-30, 02:03:04,VALID,1008.13,VALID,0,VALID,104,VALID,0,VALID,23.772,VALID,230,VALID,0.634375,
2010-12-30, 02:04:04,VALID,1008.13,VALID,0,VALID,104,VALID,0,VALID,23.772,VALID,221,VALID,0.346094,
2010-12-30, 02:05:04,VALID,1008.1,VALID,0,VALID,104,VALID,0,VALID,23.772,VALID,214,VALID,0.889844,
2010-12-30, 02:06:04,VALID,1008.07,VALID,0,VALID,104,VALID,0,VALID,23.7525,VALID,224,VALID,0.259766,
2010-12-30, 02:07:04,VALID,1008.07,VALID,0,VALID,104,VALID,0,VALID,23.8127,VALID,224,VALID,0.308594,
2010-12-30, 02:08:04,VALID,1008.09,VALID,0,VALID,104,VALID,0,VALID,23.7914,VALID,225,VALID,0.323047,
2010-12-30, 02:09:04,VALID,1008.07,VALID,0,VALID,104,VALID,0,VALID,23.7914,VALID,224,VALID,0.223047,
2010-12-30, 02:10:04,VALID,1008.11,VALID,0,VALID,104,VALID,0,VALID,23.8109,VALID,224,VALID,0.250781,
2010-12-30, 02:11:04,VALID,1008.14,VALID,0,VALID,104,VALID,0,VALID,23.7914,VALID,224,VALID,0.0359375,
2010-12-30, 02:12:04,VALID,1008.16,VALID,0,VALID,104,VALID,0,VALID,23.8322,VALID,224,VALID,0.410156,
2010-12-30, 02:13:04,VALID,1008.16,VALID,0,VALID,104,VALID,0,VALID,23.8109,VALID,216,VALID,0.464453,
2010-12-30, 02:14:04,VALID,1008.17,VALID,0,VALID,104,VALID,0,VALID,23.8322,VALID,210,VALID,0.408203,
2010-12-30, 02:15:04,VALID,1008.17,VALID,0,VALID,104,VALID,0,VALID,23.7914,VALID,211,VALID,0.607422,
2010-12-30, 02:16:04,VALID,1008.2,VALID,0,VALID,104,VALID,0,VALID,23.7914,VALID,204,VALID,0.73125,
2010-12-30, 02:17:04,VALID,1008.22,VALID,0,VALID,104,VALID,0,VALID,23.8109,VALID,204,VALID,0.540625,
2010-12-30, 02:18:04,VALID,1008.23,VALID,0,VALID,104,VALID,0,VALID,23.8517,VALID,204,VALID,0.161328,
2010-12-30, 02:19:04,VALID,1008.22,VALID,0,VALID,104,VALID,0,VALID,23.8499,VALID,204,VALID,0,
2010-12-30, 02:20:04,VALID,1008.19,VALID,0,VALID,104,VALID,0,VALID,23.8304,VALID,204,VALID,0,
2010-12-30, 02:21:04,VALID,1008.16,VALID,0,VALID,104,VALID,0,VALID,23.8517,VALID,204,VALID,0,
2010-12-30, 02:22:04,VALID,1008.14,VALID,0,VALID,104,VALID,0,VALID,23.8304,VALID,204,VALID,0.558594,
2010-12-30, 02:23:04,VALID,1008.12,VALID,0,VALID,104,VALID,0,VALID,23.8304,VALID,165,VALID,0.875781,
2010-12-30, 02:24:04,VALID,1008.09,VALID,0,VALID,103.97,VALID,0,VALID,23.8304,VALID,165,VALID,0.350391,
2010-12-30, 02:25:04,VALID,1008.06,VALID,0,VALID,103.954,VALID,0,VALID,23.8499,VALID,165,VALID,0.510156,
2010-12-30, 02:26:04,VALID,1008.06,VALID,0,VALID,103.954,VALID,0.105969,VALID,23.8286,VALID,165,VALID,0.291406,
2010-12-30, 02:27:04,VALID,1008.05,VALID,0,VALID,103.962,VALID,0,VALID,23.8499,VALID,165,VALID,0,
2010-12-30, 02:28:04,VALID,1008.02,VALID,0,VALID,103.977,VALID,0.105969,VALID,23.8481,VALID,165,VALID,0.120312,
2010-12-30, 02:29:04,VALID,1008.03,VALID,0,VALID,103.977,VALID,0,VALID,23.8286,VALID,165,VALID,0.196484,
2010-12-30, 02:30:04,VALID,1007.99,VALID,0,VALID,103.992,VALID,0.105969,VALID,23.8694,VALID,165,VALID,0.355078,
2010-12-30, 02:31:04,VALID,1007.99,VALID,0,VALID,103.962,VALID,0.105969,VALID,23.8481,VALID,154,VALID,0.313281,
2010-12-30, 02:32:04,VALID,1007.97,VALID,0,VALID,104,VALID,0.105969,VALID,23.8694,VALID,153,VALID,0.585547,
2010-12-30, 02:33:04,VALID,1007.94,VALID,0,VALID,103.985,VALID,0,VALID,23.8499,VALID,113,VALID,0.388281,
2010-12-30, 02:34:04,VALID,1007.9,VALID,0,VALID,104,VALID,0,VALID,23.8286,VALID,113,VALID,0.388281,
2010-12-30, 02:35:04,VALID,1007.9,VALID,0,VALID,103.992,VALID,0,VALID,23.8109,VALID,113,VALID,0.366797,
2010-12-30, 02:36:04,VALID,1007.88,VALID,0,VALID,104,VALID,0.105969,VALID,23.8091,VALID,113,VALID,0.383594,
2010-12-30, 02:37:04,VALID,1007.86,VALID,0,VALID,104,VALID,0.105969,VALID,23.7701,VALID,113,VALID,0.527344,
2010-12-30, 02:38:04,VALID,1007.86,VALID,0,VALID,104,VALID,0.105969,VALID,23.7701,VALID,113,VALID,0.54375,
2010-12-30, 02:39:04,VALID,1007.8,VALID,0,VALID,104,VALID,0.105969,VALID,23.7525,VALID,113,VALID,0.466016,
2010-12-30, 02:40:04,VALID,1007.81,VALID,0,VALID,104,VALID,0.105969,VALID,23.733,VALID,113,VALID,0.231641,
2010-12-30, 02:41:04,VALID,1007.82,VALID,0,VALID,104,VALID,0,VALID,23.6922,VALID,113,VALID,0,
2010-12-30, 02:42:04,VALID,1007.83,VALID,0,VALID,104,VALID,0,VALID,23.7135,VALID,113,VALID,0.009375,
2010-12-30, 02:43:04,VALID,1007.86,VALID,0,VALID,104,VALID,0,VALID,23.6727,VALID,113,VALID,0,
2010-12-30, 02:44:04,VALID,1007.86,VALID,0,VALID,104,VALID,0.105969,VALID,23.6727,VALID,113,VALID,0.00078125,
2010-12-30, 02:45:04,VALID,1007.86,VALID,0,VALID,104,VALID,0.105969,VALID,23.6727,VALID,117,VALID,0.556641,
2010-12-30, 02:46:04,VALID,1007.87,VALID,0,VALID,104,VALID,0.105969,VALID,23.733,VALID,139,VALID,0.558984,
2010-12-30, 02:47:04,VALID,1007.82,VALID,0,VALID,104,VALID,0,VALID,23.7117,VALID,139,VALID,0.594922,
2010-12-30, 02:48:04,VALID,1007.85,VALID,0,VALID,104,VALID,0.105969,VALID,23.7117,VALID,139,VALID,0.479297,
2010-12-30, 02:49:04,VALID,1007.81,VALID,0,VALID,104,VALID,0,VALID,23.7312,VALID,139,VALID,0.332812,
2010-12-30, 02:50:04,VALID,1007.79,VALID,0,VALID,104,VALID,0.105969,VALID,23.7525,VALID,139,VALID,0.232031,
2010-12-30, 02:51:04,VALID,1007.83,VALID,0,VALID,104,VALID,0.105969,VALID,23.7312,VALID,139,VALID,0.251172,
2010-12-30, 02:52:04,VALID,1007.81,VALID,0,VALID,104,VALID,0,VALID,23.7507,VALID,139,VALID,0,
2010-12-30, 02:53:04,VALID,1007.85,VALID,0,VALID,104,VALID,0,VALID,23.7525,VALID,139,VALID,0.329688,
2010-12-30, 02:54:04,VALID,1007.88,VALID,0,VALID,104,VALID,0.105969,VALID,23.7312,VALID,139,VALID,0.63125,
2010-12-30, 02:55:04,VALID,1007.86,VALID,0,VALID,104,VALID,0.105969,VALID,23.7312,VALID,139,VALID,0.606641,
2010-12-30, 02:56:04,VALID,1007.87,VALID,0,VALID,104,VALID,0,VALID,23.7525,VALID,151,VALID,0.734375,
2010-12-30, 02:57:04,VALID,1007.86,VALID,0,VALID,104,VALID,0,VALID,23.7312,VALID,155,VALID,0.753516,
2010-12-30, 02:58:04,VALID,1007.9,VALID,0,VALID,104,VALID,0.105969,VALID,23.7312,VALID,160,VALID,0.916406,
2010-12-30, 02:59:04,VALID,1007.89,VALID,0,VALID,104,VALID,0.105969,VALID,23.7117,VALID,161,VALID,0.90625,
2010-12-30, 03:00:04,VALID,1007.92,VALID,0,VALID,104,VALID,0.105969,VALID,23.7312,VALID,178,VALID,1.14219,
2010-12-30, 03:01:04,VALID,1007.94,VALID,0,VALID,104,VALID,0.105969,VALID,23.7507,VALID,203,VALID,1.36016,
2010-12-30, 03:02:04,VALID,1007.97,VALID,0,VALID,104,VALID,0.105969,VALID,23.7312,VALID,204,VALID,1.07422,
2010-12-30, 03:03:04,VALID,1007.99,VALID,0,VALID,104,VALID,0.105969,VALID,23.7701,VALID,208,VALID,1.3,
2010-12-30, 03:04:04,VALID,1008.03,VALID,0,VALID,104,VALID,0.105969,VALID,23.7701,VALID,216,VALID,1.53398,
2010-12-30, 03:05:04,VALID,1008,VALID,0,VALID,104,VALID,0.105969,VALID,23.8109,VALID,197,VALID,1.66953,
2010-12-30, 03:06:04,VALID,1008.03,VALID,0,VALID,104,VALID,0.105969,VALID,23.8091,VALID,215,VALID,1.45586,
2010-12-30, 03:07:04,VALID,1007.98,VALID,0,VALID,104,VALID,0,VALID,23.7312,VALID,208,VALID,3.64922,
2010-12-30, 03:08:04,VALID,1007.95,VALID,0,VALID,104,VALID,0,VALID,23.7896,VALID,180,VALID,1.51133,
2010-12-30, 03:09:04,VALID,1007.87,VALID,0,VALID,103.657,VALID,0,VALID,23.8286,VALID,209,VALID,1.68906,
2010-12-30, 03:10:04,VALID,1007.81,VALID,0,VALID,102.551,VALID,0,VALID,23.8499,VALID,169,VALID,1.37344,
2010-12-30, 03:11:04,VALID,1007.83,VALID,0,VALID,101.651,VALID,0.105969,VALID,23.8463,VALID,207,VALID,0.962891,
2010-12-30, 03:12:04,VALID,1007.78,VALID,0,VALID,100.995,VALID,0,VALID,23.8481,VALID,224,VALID,1.15039,
2010-12-30, 03:13:04,VALID,1007.75,VALID,0,VALID,95.749,VALID,0,VALID,23.8499,VALID,161,VALID,1.44219,
2010-12-30, 03:14:04,VALID,1007.7,VALID,0,VALID,94.1552,VALID,0.105969,VALID,23.8694,VALID,186,VALID,1.67773,
2010-12-30, 03:15:04,VALID,1007.7,VALID,0,VALID,95.5126,VALID,0.105969,VALID,23.8499,VALID,168,VALID,1.32031,
2010-12-30, 03:16:04,VALID,1007.66,VALID,0,VALID,94.5975,VALID,0.105969,VALID,23.8286,VALID,165,VALID,1.82461,
2010-12-30, 03:17:04,VALID,1007.64,VALID,0,VALID,94.6356,VALID,0,VALID,23.8286,VALID,163,VALID,1.5793,
2010-12-30, 03:18:04,VALID,1007.62,VALID,0,VALID,95.0245,VALID,0.105969,VALID,23.8286,VALID,143,VALID,0.891797,
2010-12-30, 03:19:04,VALID,1007.61,VALID,0,VALID,96.3285,VALID,0,VALID,23.7896,VALID,144,VALID,0.883594,
2010-12-30, 03:20:04,VALID,1007.59,VALID,0,VALID,96.6183,VALID,0,VALID,23.7701,VALID,163,VALID,1.42695,
2010-12-30, 03:21:04,VALID,1007.58,VALID,0,VALID,98.3646,VALID,0.105969,VALID,23.772,VALID,162,VALID,0.788281,
2010-12-30, 03:22:04,VALID,1007.57,VALID,0,VALID,99.2644,VALID,0,VALID,23.7312,VALID,188,VALID,0.976563,
2010-12-30, 03:23:04,VALID,1007.52,VALID,0,VALID,99.9431,VALID,0,VALID,23.7135,VALID,161,VALID,0.723828,
2010-12-30, 03:24:04,VALID,1007.5,VALID,0,VALID,100.233,VALID,0,VALID,23.6745,VALID,150,VALID,1.1082,
2010-12-30, 03:25:04,VALID,1007.52,VALID,0,VALID,100.401,VALID,0.105969,VALID,23.6727,VALID,148,VALID,0.866016,
2010-12-30, 03:26:04,VALID,1007.45,VALID,0,VALID,100.279,VALID,0,VALID,23.6727,VALID,152,VALID,1.40234,
2010-12-30, 03:27:04,VALID,1007.44,VALID,0,VALID,100.363,VALID,0,VALID,23.6727,VALID,156,VALID,0.84375,
2010-12-30, 03:28:04,VALID,1007.44,VALID,0,VALID,100.393,VALID,0.105969,VALID,23.6532,VALID,148,VALID,0.834766,
2010-12-30, 03:29:04,VALID,1007.43,VALID,0,VALID,100.629,VALID,0.105969,VALID,23.6727,VALID,152,VALID,0.550781,
2010-12-30, 03:30:04,VALID,1007.43,VALID,0,VALID,100.759,VALID,0,VALID,23.6338,VALID,164,VALID,1.06406,
2010-12-30, 03:31:04,VALID,1007.39,VALID,0,VALID,101.011,VALID,0,VALID,23.6356,VALID,165,VALID,0.616797,
2010-12-30, 03:32:04,VALID,1007.37,VALID,0,VALID,100.927,VALID,0,VALID,23.5948,VALID,176,VALID,0.713281,
2010-12-30, 03:33:04,VALID,1007.31,VALID,0,VALID,101.003,VALID,0,VALID,23.5948,VALID,146,VALID,0.784375,
2010-12-30, 03:34:04,VALID,1007.31,VALID,0,VALID,101.102,VALID,0,VALID,23.5948,VALID,141,VALID,0.808594,
2010-12-30, 03:35:04,VALID,1007.28,VALID,0,VALID,101.339,VALID,0,VALID,23.5753,VALID,141,VALID,0.441797,
2010-12-30, 03:36:04,VALID,1007.23,VALID,0,VALID,101.705,VALID,0,VALID,23.5753,VALID,131,VALID,0.858594,
2010-12-30, 03:37:04,VALID,1007.21,VALID,0,VALID,101.75,VALID,0.105969,VALID,23.5558,VALID,131,VALID,0.793359,
2010-12-30, 03:38:04,VALID,1007.2,VALID,0,VALID,101.682,VALID,0.105969,VALID,23.5771,VALID,131,VALID,0.685938,
2010-12-30, 03:39:04,VALID,1007.17,VALID,0,VALID,101.583,VALID,0.105969,VALID,23.5363,VALID,128,VALID,0.924609,
2010-12-30, 03:40:04,VALID,1007.14,VALID,0,VALID,101.567,VALID,0,VALID,23.5576,VALID,118,VALID,1.02969,
2010-12-30, 03:41:04,VALID,1007.14,VALID,0,VALID,101.598,VALID,0,VALID,23.5381,VALID,122,VALID,1.03242,
2010-12-30, 03:42:04,VALID,1007.09,VALID,0,VALID,101.438,VALID,0,VALID,23.5186,VALID,127,VALID,0.919922,
2010-12-30, 03:43:04,VALID,1007.07,VALID,0,VALID,101.293,VALID,0,VALID,23.5186,VALID,117,VALID,0.927344,
2010-12-30, 03:44:04,VALID,1007.07,VALID,0,VALID,101.125,VALID,0,VALID,23.5186,VALID,117,VALID,0.429297,
2010-12-30, 03:45:04,VALID,1007.05,VALID,0,VALID,101.384,VALID,0,VALID,23.5186,VALID,117,VALID,0.472656,